COSMOS 2251 DEB

Satellite information

Favourite Embed

Satellite Type and Status

DEBRISIN ORBIT

Key statistics

Satellite COSMOS 2251 DEB at a glance.

Uptime

11648

Days in orbit

Revolutions

≈ 14.4

Per day

Orbit

LEO

Low Earth Orbit

Inclination

74.2

Latest

Satellite identification and parameters

Extended collection of information and parameters for COSMOS 2251 DEB.

Object identification

Identified? True

Debris? True

Object name: COSMOS 2251 DEB

International designator: 1993-036AG

Object number (NORAD): 33791

Object ID (CCSDS): 33791

Country: COMMONWEALTH OF INDEPENDENT STATES (CIS)

Current information (Y/N): Y

RCS size: MEDIUM

Orbital parameters

Period: 99.865 minutes

Inclination: 74.1743 deg

SMA: 7130.212 km

Apoapsis: 772.559 km

Periapsis: 731.595 km

RAAN: 81.8451 deg

Eccentricy: 0.0028726

Argument of periapsis: 330.7507 deg

Mean anomaly: 89.3473 deg

Mean motion: 14.41946309 rev/day

Mean motion (dot): 0.00002698 rev/day2

B* drag term: 0.00082683 1/REarth

Two-line elements (TLE)

Creation date: May 7, 2025, 3:14 a.m.

Reference frame: TEME

Reference center: EARTH

Epoch: May 6, 2025, 11:02 p.m. UTC

TLE line 0: 0 COSMOS 2251 DEB

TLE line 1: 1 33791U 93036AG 25126.96013237 .00002698 00000-0 82683-3 0 9996

TLE line 2: 2 33791 74.1743 81.8451 0028726 330.7507 89.3473 14.41946309848834

Live tracking on map

Real-time ground track for satellite COSMOS 2251 DEB.

In-orbit conjunctions

A list of the most updated potential collisions computed for object COSMOS 2251 DEB.

Target Orbit TCA Probability of collision Miss distance Type
CZ-6A DEB LEO 2024-11-20 20:06:04 0.0002661187 105.0 (m) DEBRIS
FENGYUN 1C DEB SSO 2024-11-20 08:09:54 0.0001381715 95.0 (m) DEBRIS

Associated space launch

Military communications satellite. Destroyed in a collision with Iridium 33.

COSMOS 2251 DEB was lifted into orbit during the mission ‘Kosmos-3M | Strela-2M 51’, on board a Kosmos-3M space rocket.

The launch took place on June 16, 1993, 4:17 a.m. from 132/1 (132L).

For more information about the launch, click the button.

Launch to space Kosmos-3M | Strela-2M 51
Kosmos-3M | Strela-2M 51

Agency: N/A

Status: Launch Successful

Launch date: June 16, 1993, 4:17 a.m. UTC

Rocket: Kosmos-3M

Launch pad: 132/1 (132L)

Location: Plesetsk Cosmodrome, Russian Federation

...

Latest news about this satellite

There are no fresh news available about this satellite. Check back as we update our databases every day.


Newsletter sign-up

Weekly statistics, charts and insights to help you stay on top of the space industry.